Orbital Elements at Epoch 2459200.5 (2020-Dec-17.0) TDB
Reference: JPL 19 (heliocentric ecliptic J2000)
Element | Value | Uncertainty (1-sigma) | Units |
e | .1911334837815915 | 3.5874e-08 | |
a | 2.675699838108628 | 1.4711e-08 | au |
q | 2.164284006497085 | 9.3405e-08 | au |
i | 8.324668095323304 | 5.5161e-06 | deg |
node | 134.8323380327476 | 3.0264e-05 | deg |
peri | 309.6500541954107 | 3.727e-05 | deg |
M | 103.1760546493943 | 1.7513e-05 | deg |
tp | 2458742.325482136935 (2019-Sep-15.82548214) | 7.8269e-05 | TDB |
period | 1598.654135314639 4.38 | 1.3184e-05 3.61e-08 | d yr |
n | .2251894215562434 | 1.8571e-09 | deg/d |
Q | 3.18711566972017 | 1.7523e-08 | au |
|
| | Orbit Determination Parameters
Additional Information
|